Track STARLINK-1271 now! 10-day predictions STARLINK-1271 is classified as:
1 45217U 20012AR 21107.93112997 .00000795 00000-0 72253-4 0 9990 2 45217 53.0558 127.6916 0000450 129.7630 230.3399 15.06406898 65812